Rhinelander, WI

6:15 AM CST on February 11, 2016 (GMT -0600)
Rhinelander-Oneida County

Weather History for KRHI - December, 2011

Change the Weather History Date:

Monday, December 19, 2011

  Actual Average Record
Temperature  
Mean Temperature 30 °F 16 °F  
Max Temperature 36 °F 24 °F 44 °F (1923)
Min Temperature 24 °F 7 °F -32 °F (1983)
Degree Days  
Heating Degree Days 35 49  
Month to date heating degree days 827 882  
Since 1 July heating degree days 2618 3016  
Cooling Degree Days 0 0  
Month to date cooling degree days 0 0  
Year to date cooling degree days 321 261  
Moisture  
Dew Point 22 °F    
Average Humidity 76    
Maximum Humidity 89    
Minimum Humidity 63    
Precipitation  
Precipitation T in 0.04 in 1.16 in (1939)
Month to date precipitation 1.43 0.93  
Year to date precipitation 27.62 30.89  
Snow  
Snow T in - 8.00 in (1968)
Month to date snowfall 9.6  
Since 1 July snowfall 23.9  
Snow Depth 3.00 in    
Sea Level Pressure  
Sea Level Pressure 30.00 in    
Wind  
Wind Speed 6 mph (NW)    
Max Wind Speed 14 mph    
Max Gust Speed 24 mph    
Visibility 10 miles    
Events Snow    
T = Trace of Precipitation, MM = Missing Value Source: NWS Daily Summary

Daily Weather History Graph

Daily Weather History Graph

Search for Another Location

Airport or City:

Trip Planner

Search our weather history database for the weather conditions in past years. The results will help you decide how hot, cold, wet, or windy it might be!

Date:

Astronomy

Dec. 19, 2011 Rise Set
Actual Time 7:34 AM CST 4:15 PM CST
Civil Twilight 6:59 AM CST 4:50 PM CST
Nautical Twilight 6:22 AM CST 5:27 PM CST
Astronomical Twilight 5:45 AM CST 6:03 PM CST
Moon 1:32 AM CST (12/19) 12:24 PM CST (12/19)
Length of Visible Light 9h 50m
Length of Day
8h 41m
Waning Crescent, 31% of the Moon is Illuminated
Dec 19
Waning Crescent
Dec 24
New
Jan 1
First Quarter
Jan 9
Full
Jan 16
Last Quarter

Hourly Weather History & Observations

Time (CST) Temp. Windchill Dew Point Humidity Pressure Visibility Wind Dir Wind Speed Gust Speed Precip Events Conditions
12:53 AM 34.0 °F 26.0 °F 30.0 °F 85% 29.68 in 10.0 mi West 10.4 mph - N/A   Clear
1:53 AM 34.0 °F 25.5 °F 30.0 °F 85% 29.69 in 10.0 mi West 11.5 mph - N/A   Clear
3:53 AM 32.0 °F 25.6 °F 28.0 °F 85% 29.76 in 10.0 mi WNW 6.9 mph - N/A   Clear
4:13 AM 33.8 °F 27.0 °F 28.4 °F 81% 29.72 in 10.0 mi NW 8.1 mph - N/A   Mostly Cloudy
4:27 AM 33.8 °F 26.4 °F 28.4 °F 81% 29.73 in 10.0 mi NW 9.2 mph - N/A   Overcast
4:53 AM 33.1 °F 26.1 °F 28.0 °F 82% 29.81 in 10.0 mi NNW 8.1 mph - N/A   Overcast
5:10 AM 33.8 °F 29.6 °F 28.4 °F 81% 29.76 in 10.0 mi NW 4.6 mph - N/A   Overcast
5:36 AM 33.8 °F 27.0 °F 28.4 °F 81% 29.77 in 10.0 mi NW 8.1 mph - N/A   Overcast
5:53 AM 33.1 °F 28.7 °F 28.9 °F 85% 29.83 in 10.0 mi NW 4.6 mph - N/A   Overcast
6:53 AM 33.1 °F 28.7 °F 28.9 °F 85% 29.87 in 6.0 mi Variable 4.6 mph - 0.00 in Snow Light Snow
7:40 AM 32.0 °F 24.2 °F 26.6 °F 80% 29.85 in 10.0 mi NNW 9.2 mph - 0.00 in   Overcast
7:53 AM 32.0 °F 24.8 °F 26.1 °F 79% 29.91 in 10.0 mi NW 8.1 mph 23.0 mph 0.00 in   Overcast
8:53 AM 30.9 °F 25.2 °F 23.0 °F 72% 29.97 in 10.0 mi Variable 5.8 mph - N/A   Overcast
9:53 AM 30.9 °F 21.2 °F 21.0 °F 67% 30.02 in 10.0 mi NW 12.7 mph 17.3 mph N/A   Overcast
10:24 AM 30.2 °F 24.3 °F 19.4 °F 64% 29.98 in 10.0 mi NW 5.8 mph 17.3 mph N/A   Overcast
10:53 AM 30.9 °F 22.2 °F 19.9 °F 64% 30.04 in 10.0 mi NW 10.4 mph - N/A   Overcast
11:53 AM 30.0 °F 22.4 °F 21.0 °F 69% 30.07 in 10.0 mi NNW 8.1 mph 16.1 mph N/A   Overcast
12:53 PM 30.0 °F 22.4 °F 19.9 °F 66% 30.09 in 10.0 mi NW 8.1 mph 17.3 mph N/A   Overcast
1:28 PM 30.2 °F 21.3 °F 19.4 °F 64% 30.04 in 10.0 mi NW 10.4 mph - N/A   Overcast
1:53 PM 30.0 °F 21.7 °F 19.0 °F 64% 30.11 in 10.0 mi WNW 9.2 mph 17.3 mph N/A   Overcast
2:13 PM 28.4 °F 19.7 °F 19.4 °F 69% 30.05 in 10.0 mi NNW 9.2 mph 17.3 mph N/A   Overcast
2:42 PM 28.4 °F 22.2 °F 19.4 °F 69% 30.06 in 10.0 mi Variable 5.8 mph - N/A   Overcast
2:53 PM 28.9 °F 21.9 °F 19.9 °F 69% 30.13 in 10.0 mi NNW 6.9 mph - N/A   Overcast
3:20 PM 28.4 °F 21.2 °F 17.6 °F 64% 30.08 in 10.0 mi NNW 6.9 mph - N/A   Overcast
3:53 PM 28.0 °F 20.8 °F 18.0 °F 66% 30.16 in 10.0 mi NNW 6.9 mph - N/A   Overcast
4:53 PM 28.0 °F 22.8 °F 18.0 °F 66% 30.19 in 10.0 mi Variable 4.6 mph - N/A   Overcast
5:53 PM 27.0 °F 23.0 °F 19.0 °F 72% 30.22 in 10.0 mi Variable 3.5 mph - N/A   Overcast
6:53 PM 27.0 °F 19.5 °F 19.0 °F 72% 30.25 in 10.0 mi NNE 6.9 mph - N/A   Overcast
7:53 PM 26.1 °F - 19.0 °F 75% 30.27 in 10.0 mi Calm Calm - N/A   Overcast
8:53 PM 26.1 °F 21.9 °F 17.1 °F 69% 30.26 in 10.0 mi NNE 3.5 mph - N/A   Overcast
9:53 PM 25.0 °F - 15.1 °F 66% 30.24 in 10.0 mi Calm Calm - N/A   Overcast
10:53 PM 25.0 °F - 15.1 °F 66% 30.26 in 10.0 mi Calm Calm - N/A   Overcast
11:53 PM 25.0 °F - 16.0 °F 69% 30.27 in 10.0 mi Calm Calm - N/A   Overcast